Lid_Strength_Index
5 5 5 5 6 6 6 6 6 7 7 7 7 8 8 8 7 8 8 8 8 8
4 5 5 5 5 5 5 5 5 6 6 7 7 7 7 7 7 8 8 8 8 8
5 4 5 4 5 5 5 5 5 5 6 6 7 7 8 8 8 8 8 8 9 9
4 4 5 5 5 5 5 6 6 6 6 7 8 7 7 8 8 9 9 9 9 10
4 5 5 5 5 5 5 6 5 5 6 6 6 7 7 8 9 10 10 10 10 10
4 5 5 5 5 5 5 5 5 5 5 6 6 7 9 9 10 10 10 11 12 12
4 5 4 4 5 4 5 5 6 6 7 8 9 10 10 10 11 11 12 12 12 12
4 4 4 4 5 5 5 6 7 9 9 9 10 11 11 11 12 12 13 13 13 12
7 7 7 7 7 8 8 9 9 10 10 11 10 8 8 10 12 13 12 12 12 12
6 7 7 7 8 8 9 10 10 10 11 11 12 8 7 8 12 12 12 12 12 12
7 8 9 9 10 11 11 11 11 11 12 11 11 7 6 7 12 12 12 12 12 13
9 9 9 10 10 11 11 11 11 11 12 12 11 8 8 8 11 11 12 12 12 12
9 10 10 11 11 11 11 11 11 11 11 10 11 9 8 10 11 12 12 12 12 10
10 10 10 11 11 11 11 11 11 12 12 12 12 10 9 9 11 11 12 13 13 12